Regional Weather Roundup
Issued by NWS

Home | Current Version | Previous Version | Graphics & Text | Print | Product List | Glossary On
Versions: 1 2 3 4 5 6 7 8 9 10 11 12 13 14 15 16 17 18 19 20 21 22 23 24 25 26 27 28 29 30 31 32 33 34 35 36 37 38 39 40 41 42 43 44 45 46 47 48 49 50
000
ASUS43 KDMX 110508
RWRIA

WEATHER ROUNDUP FOR IOWA
NATIONAL WEATHER SERVICE DES MOINES IA
1100 PM CST WED FEB 10 2016

NOTE: "FAIR" INDICATES FEW OR NO CLOUDS BELOW 12,000 FEET WITH NO
SIGNIFICANT WEATHER AND/OR OBSTRUCTIONS TO VISIBILITY.

* - THESE STATIONS ARE NOT NWS STATIONS...THUS NOT UNDER NWS
QUALITY CONTROL.  THEY ALSO DO NOT REPORT WEATHER SUCH
AS PRECIPITATION OR FOG.

IAZ001>003-012>014-020>022-031>034-043>046-110600-
   NORTHWEST IOWA

CITY           SKY/WX    TMP DP  RH WIND       PRES   REMARKS
CARROLL *      CLOUDY    14   9  79 NE10      30.20R WCI   1
CHEROKEE *     CLOUDY    14  10  85 NE6       30.21R WCI   5
DENISON *      CLOUDY    14  10  85 NE9       30.17R WCI   2
LE MARS *      CLOUDY    16  12  86 NE8       30.22R WCI   5
ORANGE CITY *  CLOUDY    12  10  92 NE9       30.20R WCI   0
SHELDON *      CLOUDY    12   7  79 NE13      30.20R WCI  -3
SIOUX CITY     CLOUDY    19  12  74 E7        30.21R WCI  10
SPENCER        CLOUDY    12   3  67 NE14      30.21R WCI  -3
STORM LAKE *   CLOUDY    12   9  85 NE12      30.19R WCI  -2
$$

IAZ055>058-069>071-079>083-090>094-110600-
   SOUTHWEST IOWA

CITY           SKY/WX    TMP DP  RH WIND       PRES   REMARKS
ATLANTIC *     CLOUDY    18  14  86 NE10      30.17R WCI   6
AUDUBON *      MOCLDY    14  10  85 NE8       30.17R WCI   3
CLARINDA *     CLOUDY    25  21  86 NE7G13    30.16R WCI  17
COUNCIL BLFS * MOCLDY    19  18  93 NE13      30.15R WCI   7
CRESTON *      CLOUDY    18  14  86 NE14      30.15R WCI   4
HARLAN  *      CLOUDY    16  14  93 NE8       30.21R WCI   5
LAMONI         CLOUDY    20  16  84 NE10      30.13S WCI   9
RED OAK *      CLOUDY    23  19  86 E12       30.15R WCI  12
SHENANDOAH *   CLOUDY    25  23  93 NE13      30.15R WCI  13
$$

IAZ047>049-059>061-072>074-084-110600-
   CENTRAL IOWA

CITY           SKY/WX    TMP DP  RH WIND       PRES   REMARKS
AMES           CLOUDY    13   4  67 NE8       30.21R WCI   2
ANKENY *       CLOUDY    14   9  79 NE8       30.20S WCI   3
BOONE *        CLOUDY    10   3  72 N8        30.19R WCI  -1
CHARITON *     CLOUDY    19  14  79 NE9       30.16F WCI   9
DES MOINES     CLOUDY    17   9  70 NE9       30.18S WCI   6
GRINNELL*      CLOUDY    16   9  73 N10       30.20R WCI   3
KNOXVILLE *    CLOUDY    18  10  73 NE7       30.17S WCI   8
MARSHALLTOWN   CLOUDY    11   2  67 N12       30.20R WCI  -3
NEWTON *       CLOUDY    16   7  67 N10       30.19S WCI   3
PELLA *        CLOUDY    18   9  68 NE3       30.20S
$$

IAZ004>006-015-016-023>025-035-036-110600-
   NORTH CENTRAL IOWA

CITY           SKY/WX    TMP DP  RH WIND       PRES   REMARKS
ALGONA *       CLOUDY    12   5  73 N7        30.21R WCI   2
CLARION *      MOCLDY     3  -4  72 CALM      30.22R
ESTHERVILLE    CLOUDY     9   3  77 N8        30.22R WCI  -3
FORT DODGE *   CLOUDY    10   1  67 NE5       30.23R WCI   2
MASON CITY     CLOUDY     2  -3  80 N5        30.22R WCI  -8
FOREST CITY *  CLOUDY     9   1  72 N6        30.21R WCI  -1
WEBSTER CITY * CLOUDY    10   1  67 NE8       30.20R WCI  -1
IOWA FALLS *     N/A      9   1  72 N5        30.21S WCI   0
$$

IAZ007>011-017>019-026>030-037>042-050>054-066-110600-
   NORTHEAST IOWA

CITY           SKY/WX    TMP DP  RH WIND       PRES   REMARKS
CEDAR RAPIDS   CLOUDY    12   2  64 N10       30.19R WCI  -1
CHARLES CITY * CLOUDY     3  -4  72 NW3       30.22R
CLINTON *      CLOUDY    11   6  81 N9        30.20R WCI  -2
DECORAH *      CLOUDY     7  -2  66 NW5       30.19R WCI  -2
DUBUQUE        CLOUDY    11   2  67 N6        30.17S WCI   1
MONTICELLO *   CLOUDY    12   1  62 N5        30.20R WCI   4
OELWEIN *      CLOUDY     7  -2  66 N8        30.21R WCI  -6
WATERLOO       CLOUDY     7  -2  66 N8        30.21R WCI  -6
$$

IAZ064-065-067-068-078-110600-
   EAST CENTRAL IOWA

CITY           SKY/WX    TMP DP  RH WIND       PRES   REMARKS
DAVENPORT      CLOUDY    11   3  70 N6        30.20R WCI   1
IOWA CITY      CLOUDY    14   3  61 N9        30.22R WCI   2
MT. PLEASANT * CLOUDY    21  14  73 N7        30.18F WCI  13
MUSCATINE *    CLOUDY    16   3  57 N9        30.22S WCI   4
QUAD CITIES    CLOUDY    14   2  58 N7        30.20R WCI   4
$$

IAZ062-063-075>077-085>089-095>099-110600-
   SOUTHEAST IOWA

CITY           SKY/WX    TMP DP  RH WIND       PRES   REMARKS
BURLINGTON     CLOUDY    19  12  74 N7        30.17S WCI  10
FAIRFIELD *    CLOUDY    18  10  73 N8        30.18S WCI   7
FORT MADISON * CLOUDY    18  16  93 N3        30.18S
KEOKUK *       CLOUDY    19  16  86 CALM      30.18R
OSKALOOSA *    CLOUDY    18  10  73 N8        30.19S WCI   7
CENTERVILLE *  CLOUDY    19  16  86 NE7       30.16F WCI  10
OTTUMWA        CLOUDY    18  12  77 N7        30.18R WCI   9
WASHINGTON *   CLOUDY    18   7  62 N9        30.21R WCI   6
$$

ABBREVIATIONS USED IN REMARKS
   TC - TEMPERATURES IN CELSIUS
  WCI - WIND CHILL INDEX
   HX - HEAT INDEX
  VSB - VISIBILITY
$$





USA.gov is the U.S. government's official web portal to all federal, state and local government web resources and services.